Location: Bieujac
(44.5398°N, 0.1549°W)
Time: 19:22:37
(UTC+00:00)

Cosmos 1151 Rocket - Pass Details

Date: 17 November 2019
Orbit: 592 x 616 km, 82.5° (Epoch: 14 December)

Event Time Altitude Azimuth Distance (km) Brightness Sun altitude
Rises 06:00:12 0° 343° (NNW) 2,894 6.2 -10.6°
Reaches altitude 10° 06:02:34 10° 335° (NNW) 1,981 5.3 -10.2°
Maximum altitude 06:06:34 36° 269° (W) 973 3.6 -9.5°
Drops below altitude 10° 06:10:32 10° 202° (SSW) 1,955 5.6 -8.9°
Sets 06:12:51 0° 194° (SSW) 2,850 6.5 -8.5°
